sat.trackr.live / text

‹ back to catalog

STARLINK-1667

NORAD 46155 · 2020-057AQ

PAYLOAD ACTIVE UNKNOWN

§ Identity

Operator
Country
US
Launch date
2020-08-18
Launch site
AFETR
Launch vehicle
Mass (kg)
RCS (m²)

Purposes: comms

External: N2YO · Heavens-Above · Gunter

§ Orbital elements

Epoch: 2026-05-25T04:08:24.635904Z

Period
90.94 min
Inclination
53.0136°
Eccentricity
0.0008430
Mean motion
15.83437526 rev/d
Perigee alt
315.1 km
Apogee alt
326.4 km
Semi-major
6,698.9 km
B*
8.5510e-4
RAAN
204.5638°
Arg perigee
14.0017°
Mean anomaly
346.1237°
Rev number
32,063

§ Raw data

STARLINK-16671 46155U 20057AQ  26145.17250736  .00194262  00000+0  85510-3 0  99992 46155  53.0136 204.5638 0008430  14.0017 346.1237 15.83437526320631

JSON: /api/v1/satellites/46155 · /tle

For live sub-satellite position, see the globe view (requires WebGL).

§ Visibility from observer

Set your observer location to see the next 7 days of passes ≥ 10°. The values pass through the URL so the page stays shareable.

No JS? Fill the form by hand. The geolocation button needs JavaScript.